FW8979 Weather Reports


time (UTC)temp
C
wind
direction
speed
KPH
gust
KPH
rain 1hr
cm
rain 24hr
cm
rain mn
cm
humidity
%
barometer
mb
20260510130653 17 163 3.2 3.2 0.00 0.00 0.00 97 1006.9
20260510130150 17 163 0.0 1.6 0.00 0.00 0.00 98 1006.9
20260510125647 17 223 1.6 3.2 0.00 0.00 0.00 98 1006.9
20260510125143 17 221 3.2 4.8 0.00 0.00 0.00 98 1006.9
20260510124640 16 207 1.6 1.6 0.00 0.00 0.00 99 1006.9
20260510124137 16 191 1.6 1.6 0.00 0.00 0.00 99 1006.7
20260510123632 16 166 0.0 0.0 0.00 0.00 0.00 99 1006.6
20260510123129 16 152 0.0 1.6 0.00 0.00 0.00 99 1006.7
20260510122625 15 146 1.6 1.6 0.00 0.00 0.00 99 1006.7
20260510122121 15 206 1.6 1.6 0.00 0.00 0.00 99 1006.5
20260510121618 15 149 3.2 4.8 0.00 0.00 0.00 99 1006.7
20260510121115 15 140 0.0 0.0 0.00 0.00 0.00 99 1006.9
20260510120613 14 140 0.0 0.0 0.00 0.00 0.00 99 1006.2
20260510120108 14 136 0.0 0.0 0.00 0.00 0.00 99 1006.5
20260510115605 14 137 0.0 0.0 0.00 0.00 0.00 99 1006.4
20260510115102 13 156 0.0 0.0 0.00 0.00 0.00 99 1006.1
20260510114558 13 180 1.6 1.6 0.00 0.00 0.00 99 1006.4
20260510114054 13 159 0.0 0.0 0.00 0.00 0.00 99 1006.4
20260510113549 13 134 0.0 0.0 0.00 0.00 0.00 99 1006.3
20260510113047 13 157 0.0 0.0 0.00 0.00 0.00 99 1006.0
20260510112544 13 154 0.0 0.0 0.00 0.00 0.00 99 1005.8
20260510112040 13 130 0.0 0.0 0.00 0.00 0.00 99 1005.7
20260510111537 13 117 0.0 0.0 0.00 0.00 0.00 99 1005.8
20260510111033 13 144 0.0 0.0 0.00 0.00 0.00 99 1005.7
20260510110529 13 125 0.0 0.0 0.00 0.00 0.00 99 1005.7
20260510110026 13 145 0.0 0.0 0.00 0.00 0.00 99 1005.5
20260510105521 12 107 0.0 0.0 0.00 0.00 0.00 99 1005.4
20260510105016 12 131 0.0 1.6 0.00 0.00 0.00 99 1005.3
20260510104513 12 153 0.0 0.0 0.00 0.00 0.00 99 1005.5
20260510104009 12 153 0.0 0.0 0.00 0.00 0.00 99 1005.4
20260510103507 12 163 0.0 0.0 0.00 0.00 0.00 99 1005.2
20260510103002 12 122 0.0 0.0 0.00 0.00 0.00 99 1005.3
20260510102458 12 122 0.0 0.0 0.00 0.00 0.00 99 1005.3
20260510101955 12 121 0.0 0.0 0.00 0.00 0.00 99 1005.2
20260510101452 12 121 0.0 0.0 0.00 0.00 0.00 99 1005.1
20260510100951 12 122 0.0 0.0 0.00 0.00 0.00 99 1005.3
20260510100446 11 121 0.0 0.0 0.00 0.00 0.00 99 1005.2
20260510095943 11 121 0.0 0.0 0.00 0.00 0.00 99 1005.0
20260510095439 11 121 0.0 0.0 0.00 0.00 0.00 99 1005.0
20260510094938 12 121 0.0 0.0 0.00 0.00 0.00 99 1005.1
20260510094433 12 121 0.0 0.0 0.00 0.00 0.00 99 1004.9
20260510093929 12 121 0.0 0.0 0.00 0.00 0.00 99 1004.8
20260510093424 12 121 0.0 0.0 0.00 0.00 0.00 99 1004.8
20260510092921 12 121 0.0 0.0 0.00 0.00 0.00 99 1004.8
20260510092419 12 121 0.0 0.0 0.00 0.00 0.00 99 1004.7
20260510091918 12 121 0.0 0.0 0.00 0.00 0.00 99 1004.9
20260510091416 12 121 0.0 0.0 0.00 0.00 0.00 99 1004.5
20260510090912 12 122 0.0 0.0 0.00 0.00 0.00 99 1004.4
20260510090409 12 121 0.0 0.0 0.00 0.00 0.00 99 1004.5
20260510085905 12 121 0.0 0.0 0.00 0.00 0.00 98 1004.6
20260510085400 12 121 0.0 0.0 0.00 0.00 0.00 99 1004.4
20260510084855 12 122 0.0 0.0 0.00 0.00 0.00 99 1004.5
20260510084354 12 121 0.0 0.0 0.00 0.00 0.00 98 1004.6
20260510083850 13 121 0.0 0.0 0.00 0.00 0.00 98 1004.3
20260510083346 13 122 0.0 0.0 0.00 0.00 0.00 98 1004.6
20260510082842 13 122 0.0 0.0 0.00 0.00 0.00 99 1004.4
20260510082340 13 122 0.0 0.0 0.00 0.00 0.00 98 1004.3
20260510081838 13 121 0.0 0.0 0.00 0.00 0.00 98 1004.2
20260510081334 13 121 0.0 0.0 0.00 0.00 0.00 98 1003.9
20260510080831 13 122 0.0 0.0 0.00 0.00 0.00 98 1004.2
20260510080325 13 122 0.0 0.0 0.00 0.00 0.00 98 1004.2
20260510075823 13 121 0.0 0.0 0.00 0.00 0.00 98 1004.0
20260510075320 13 121 0.0 0.0 0.00 0.00 0.00 98 1003.9
20260510074816 13 121 0.0 0.0 0.00 0.00 0.00 98 1003.9
20260510074314 13 121 0.0 0.0 0.00 0.00 0.00 98 1003.9
20260510073810 14 121 0.0 1.6 0.00 0.00 0.00 98 1003.9
20260510073306 14 122 0.0 0.0 0.00 0.00 0.00 98 1003.9
20260510072802 14 121 0.0 0.0 0.00 0.00 0.00 98 1003.6
20260510072259 14 116 0.0 0.0 0.00 0.00 0.00 98 1003.7
20260510071754 13 116 0.0 0.0 0.00 0.00 0.00 98 1003.8
20260510071251 13 113 0.0 0.0 0.00 0.00 0.00 98 1003.6
20260510070750 14 121 0.0 0.0 0.00 0.00 0.00 98 1003.8
20260510070247 14 222 0.0 1.6 0.00 0.00 0.00 98 1003.8
20260510065741 13 137 0.0 0.0 0.00 0.00 0.00 98 1003.6
20260510065238 13 136 0.0 0.0 0.00 0.00 0.00 98 1003.6
20260510064734 12 136 0.0 0.0 0.00 0.00 0.00 98 1003.8
20260510064232 12 136 0.0 0.0 0.00 0.00 0.00 98 1003.9
20260510063728 12 136 0.0 0.0 0.00 0.00 0.00 97 1003.9
20260510063225 12 136 0.0 0.0 0.00 0.00 0.00 97 1003.9
20260510062721 12 136 0.0 0.0 0.00 0.00 0.00 97 1003.9
20260510062217 12 136 0.0 0.0 0.00 0.00 0.00 97 1003.9
20260510061713 12 136 0.0 0.0 0.00 0.00 0.00 97 1003.8
20260510061210 12 136 0.0 0.0 0.00 0.00 0.00 97 1003.9
20260510060707 12 136 0.0 0.0 0.00 0.00 0.00 96 1003.8
20260510060203 12 136 0.0 0.0 0.00 0.00 0.00 97 1004.0
20260510055700 12 136 0.0 0.0 0.00 0.00 0.00 96 1004.1
20260510055158 12 136 0.0 0.0 0.00 0.00 0.00 96 1003.8
20260510054653 13 136 0.0 0.0 0.00 0.00 0.00 96 1004.0
20260510054149 13 136 0.0 0.0 0.00 0.00 0.00 96 1004.1
20260510053648 13 136 0.0 0.0 0.00 0.00 0.00 95 1004.0
20260510053145 13 136 0.0 0.0 0.00 0.00 0.00 95 1004.0
20260510052641 13 136 0.0 0.0 0.00 0.00 0.00 94 1003.8
20260510052137 13 136 0.0 0.0 0.00 0.00 0.00 93 1003.8
20260510051633 14 136 0.0 0.0 0.00 0.00 0.00 93 1003.9
20260510051130 14 137 1.6 1.6 0.00 0.00 0.00 92 1003.9
20260510050627 14 144 0.0 0.0 0.00 0.00 0.00 91 1003.8
20260510050124 15 147 0.0 0.0 0.00 0.00 0.00 91 1004.0
20260510045621 15 151 0.0 0.0 0.00 0.00 0.00 91 1003.8
20260510045117 15 137 0.0 0.0 0.00 0.00 0.00 91 1003.9
20260510044613 15 141 0.0 0.0 0.00 0.00 0.00 91 1003.9
20260510044111 15 161 0.0 0.0 0.00 0.00 0.00 91 1003.9
20260510043606 15 158 0.0 1.6 0.00 0.00 0.00 91 1003.7
20260510043103 15 141 0.0 1.6 0.00 0.00 0.00 92 1003.7
20260510042601 15 116 0.0 0.0 0.00 0.00 0.00 92 1003.6
20260510042057 15 117 0.0 0.0 0.00 0.00 0.00 91 1003.9
20260510041554 15 133 0.0 0.0 0.00 0.00 0.00 90 1003.6
20260510041051 15 161 0.0 0.0 0.00 0.00 0.00 90 1003.8
20260510040548 15 122 0.0 0.0 0.00 0.00 0.00 90 1003.7
20260510040044 15 122 0.0 0.0 0.00 0.00 0.00 90 1003.7
20260510035540 15 131 0.0 1.6 0.00 0.00 0.00 90 1003.6
20260510035040 14 112 0.0 0.0 0.00 0.00 0.00 90 1003.9
20260510034539 14 139 0.0 0.0 0.00 0.00 0.00 90 1003.6
20260510034035 14 143 0.0 1.6 0.00 0.00 0.00 91 1003.7
20260510033531 13 162 0.0 0.0 0.00 0.00 0.00 92 1003.8
20260510033029 13 136 0.0 0.0 0.00 0.00 0.00 91 1003.6
20260510032525 14 136 0.0 0.0 0.00 0.00 0.00 91 1003.6
20260510032020 14 136 0.0 0.0 0.00 0.00 0.00 90 1003.5
20260510031516 15 136 0.0 0.0 0.00 0.00 0.00 88 1003.6
20260510031012 15 136 0.0 0.0 0.00 0.00 0.00 87 1003.4
20260510030508 15 137 0.0 0.0 0.00 0.00 0.00 87 1003.5
20260510030005 15 151 0.0 0.0 0.00 0.00 0.00 86 1003.5
20260510025502 15 121 0.0 0.0 0.00 0.00 0.00 88 1003.4
20260510025000 15 121 0.0 0.0 0.00 0.00 0.00 87 1003.5
20260510024456 15 120 0.0 0.0 0.00 0.00 0.00 89 1003.3
20260510023952 15 120 0.0 0.0 0.00 0.00 0.00 88 1003.1
20260510023449 15 121 0.0 0.0 0.00 0.00 0.00 87 1002.9
20260510022946 15 121 0.0 0.0 0.00 0.00 0.00 86 1003.0
20260510022445 15 89 0.0 0.0 0.00 0.00 0.00 86 1002.8
20260510021944 15 88 0.0 0.0 0.00 0.00 0.00 86 1002.7
20260510021442 15 89 0.0 0.0 0.00 0.00 0.00 85 1002.9
20260510020938 15 89 0.0 0.0 0.00 0.00 0.00 85 1002.9
20260510020433 15 88 0.0 0.0 0.00 0.00 0.00 85 1002.6
20260510015929 15 88 0.0 0.0 0.00 0.00 0.00 83 1002.6
20260510015425 16 91 0.0 0.0 0.00 0.00 0.00 83 1002.5
20260510014920 16 91 0.0 0.0 0.00 0.00 0.00 81 1002.4
20260510014418 16 90 0.0 0.0 0.00 0.00 0.00 81 1002.3
20260510013914 16 90 0.0 0.0 0.00 0.00 0.00 80 1002.2
20260510013409 16 90 0.0 0.0 0.00 0.00 0.00 79 1002.1
20260510012904 16 89 0.0 0.0 0.00 0.00 0.00 79 1002.0
20260510012400 16 89 0.0 0.0 0.00 0.00 0.00 79 1002.1
20260510011854 17 85 0.0 1.6 0.00 0.00 0.00 78 1002.1
20260510011350 17 112 0.0 0.0 0.00 0.00 0.00 75 1001.9
20260510010846 17 112 0.0 0.0 0.00 0.00 0.00 74 1002.0
20260510010344 17 112 0.0 0.0 0.00 0.00 0.00 74 1001.7
20260510005840 17 112 0.0 0.0 0.00 0.00 0.00 72 1001.7
20260510005337 18 112 0.0 0.0 0.00 0.00 0.00 71 1001.7
20260510004834 18 112 0.0 0.0 0.00 0.00 0.00 69 1001.6
20260510004332 19 112 0.0 0.0 0.00 0.00 0.00 71 1001.5
20260510003829 20 112 0.0 0.0 0.00 0.00 0.00 70 1001.6
20260510003326 20 112 0.0 0.0 0.00 0.00 0.00 68 1001.5
20260510002825 20 80 0.0 1.6 0.00 0.00 0.00 66 1001.5
20260510002322 21 79 0.0 0.0 0.00 0.00 0.00 67 1001.4
20260510001819 22 47 0.0 0.0 0.00 0.00 0.00 58 1001.3
20260510001317 23 47 0.0 0.0 0.00 0.00 0.00 60 1001.4
20260510000813 24 46 0.0 0.0 0.00 0.00 0.00 52 1001.3
20260510000311 24 16 0.0 1.6 0.00 0.00 0.00 51 1001.2
20260509235808 25 292 4.8 4.8 0.00 0.00 0.00 45 1001.5
20260509235306 25 344 4.8 4.8 0.00 0.00 0.00 44 1001.4
20260509234800 25 302 3.2 3.2 0.00 0.00 0.00 46 1001.3
20260509234256 25 314 4.8 8.0 0.00 0.00 0.00 46 1001.4
20260509233755 26 295 4.8 4.8 0.00 0.00 0.00 45 1001.2
20260509233252 26 345 3.2 3.2 0.00 0.00 0.00 46 1001.2
20260509232748 26 270 3.2 3.2 0.00 0.00 0.00 47 1001.1
20260509232246 26 244 3.2 4.8 0.00 0.00 0.00 45 1001.2
20260509231742 26 220 3.2 3.2 0.00 0.00 0.00 46 1001.1
20260509231239 26 301 1.6 3.2 0.00 0.00 0.00 45 1001.2
20260509230736 26 318 4.8 4.8 0.00 0.00 0.00 43 1001.1
20260509230233 26 227 1.6 3.2 0.00 0.00 0.00 45 1000.9
20260509225728 26 355 1.6 3.2 0.00 0.00 0.00 45 1001.0
20260509225224 26 220 1.6 1.6 0.00 0.00 0.00 49 1000.7
20260509224720 26 322 4.8 8.0 0.00 0.00 0.00 47 1000.7
20260509224217 26 315 3.2 3.2 0.00 0.00 0.00 48 1000.8
20260509223714 26 0 6.4 8.0 0.00 0.00 0.00 48 1000.8
20260509223211 25 296 3.2 3.2 0.00 0.00 0.00 49 1000.7
20260509222708 25 233 6.4 8.0 0.00 0.00 0.00 49 1000.8
20260509222203 26 275 1.6 3.2 0.00 0.00 0.00 48 1000.7
20260509221659 25 310 6.4 8.0 0.00 0.00 0.00 50 1000.9
20260509221155 26 302 4.8 8.0 0.00 0.00 0.00 48 1000.8
20260509220652 25 329 4.8 4.8 0.00 0.00 0.00 50 1000.9
20260509220148 25 341 3.2 3.2 0.00 0.00 0.00 51 1000.8
20260509215644 26 343 8.0 11.3 0.00 0.00 0.00 51 1000.7
20260509215141 26 341 8.0 9.7 0.00 0.00 0.00 52 1000.8
20260509214638 26 261 4.8 4.8 0.00 0.00 0.00 51 1001.0
20260509214135 26 302 4.8 4.8 0.00 0.00 0.00 51 1000.8
20260509213631 25 244 3.2 3.2 0.00 0.00 0.00 52 1000.9
20260509213127 25 327 8.0 9.7 0.00 0.00 0.00 54 1000.8
20260509212625 25 231 1.6 1.6 0.00 0.00 0.00 56 1000.7
20260509212122 25 336 8.0 11.3 0.00 0.00 0.00 53 1000.7
20260509211618 25 222 1.6 1.6 0.00 0.00 0.00 53 1000.8
20260509211114 23 44 1.6 1.6 0.00 0.00 0.00 60 1000.9
20260509210611 24 106 1.6 1.6 0.00 0.00 0.00 58 1000.7
20260509210108 24 196 1.6 1.6 0.00 0.00 0.00 60 1000.7
20260509205602 25 74 0.0 0.0 0.00 0.00 0.00 58 1000.9
20260509205057 25 285 4.8 4.8 0.00 0.00 0.00 58 1000.7
20260509204554 24 344 8.0 9.7 0.00 0.00 0.00 60 1000.8
20260509204051 23 311 0.0 1.6 0.00 0.00 0.00 62 1000.8
20260509203546 23 307 3.2 3.2 0.00 0.00 0.00 63 1000.8
20260509203044 23 161 3.2 3.2 0.00 0.00 0.00 63 1000.9
20260509202539 23 182 3.2 3.2 0.00 0.00 0.00 62 1000.7
20260509202035 24 151 0.0 1.6 0.00 0.00 0.00 61 1000.7
20260509201530 24 279 1.6 1.6 0.00 0.00 0.00 62 1000.9
20260509201028 23 201 3.2 3.2 0.00 0.00 0.00 63 1001.2
20260509200527 23 201 1.6 1.6 0.00 0.00 0.00 64 1001.2
20260509200024 24 169 3.2 3.2 0.00 0.00 0.00 64 1000.9
20260509195520 25 287 3.2 4.8 0.00 0.00 0.00 60 1001.1
20260509195019 25 299 3.2 3.2 0.00 0.00 0.00 61 1001.2
20260509194515 25 214 8.0 9.7 0.00 0.00 0.00 61 1001.3
20260509194012 24 234 1.6 3.2 0.00 0.00 0.00 64 1001.3
20260509193507 25 169 8.0 11.3 0.00 0.00 0.00 62 1001.4
20260509193004 25 186 8.0 11.3 0.00 0.00 0.00 60 1001.7
20260509192500 25 166 1.6 3.2 0.00 0.00 0.00 62 1001.7
20260509191954 23 234 1.6 1.6 0.00 0.00 0.00 64 1001.3
20260509191450 23 228 3.2 4.8 0.00 0.00 0.00 62 1001.5
20260509190946 23 249 3.2 3.2 0.00 0.00 0.00 63 1001.5
20260509190443 25 178 11.3 12.9 0.00 0.00 0.00 60 1001.6
20260509185941 23 164 3.2 4.8 0.00 0.00 0.00 64 1001.5
20260509185438 23 297 4.8 8.0 0.00 0.00 0.00 66 1001.6
20260509184935 23 273 3.2 8.0 0.00 0.00 0.00 65 1001.7
20260509184433 23 241 3.2 3.2 0.00 0.00 0.00 63 1002.0
20260509183929 23 320 3.2 4.8 0.00 0.00 0.00 64 1001.6
20260509183423 22 182 3.2 3.2 0.00 0.00 0.00 70 1001.8
20260509182920 22 183 1.6 1.6 0.00 0.00 0.00 69 1001.7
20260509182416 22 184 4.8 4.8 0.00 0.00 0.00 66 1001.6
20260509181914 22 184 0.0 0.0 0.00 0.00 0.00 66 1001.6
20260509181412 23 259 4.8 8.0 0.00 0.00 0.00 66 1001.7
20260509180909 23 212 4.8 8.0 0.00 0.00 0.00 66 1001.6
20260509180404 22 222 3.2 4.8 0.00 0.00 0.00 70 1001.6
20260509175901 22 317 9.7 11.3 0.00 0.00 0.00 67 1001.6
20260509175357 22 169 4.8 4.8 0.00 0.00 0.00 69 1001.3
20260509174854 22 157 8.0 11.3 0.00 0.00 0.00 70 1001.5
20260509174350 22 122 4.8 4.8 0.00 0.00 0.00 70 1001.3
20260509173846 22 176 3.2 3.2 0.00 0.00 0.00 69 1001.6
20260509173341 22 222 4.8 4.8 0.00 0.00 0.00 70 1001.5
20260509172837 22 154 4.8 4.8 0.00 0.00 0.00 73 1001.5
20260509172334 22 189 1.6 3.2 0.00 0.00 0.00 71 1001.7
20260509171830 22 106 4.8 4.8 0.00 0.00 0.00 67 1001.3
20260509171326 22 215 1.6 3.2 0.00 0.00 0.00 69 1001.5
20260509170823 22 334 3.2 3.2 0.00 0.00 0.00 69 1001.7
20260509170318 21 278 3.2 3.2 0.00 0.00 0.00 70 1001.9
20260509165818 22 212 8.0 9.7 0.00 0.00 0.00 69 1001.9
20260509165313 21 309 1.6 3.2 0.00 0.00 0.00 70 1001.9
20260509164809 21 226 1.6 3.2 0.00 0.00 0.00 74 1001.9
20260509164306 21 180 3.2 3.2 0.00 0.00 0.00 70 1001.9
20260509163802 22 260 3.2 3.2 0.00 0.00 0.00 72 1001.8
20260509163258 21 226 4.8 8.0 0.00 0.00 0.00 74 1001.8
20260509162758 20 218 1.6 3.2 0.00 0.00 0.00 75 1002.0
20260509162251 21 312 1.6 1.6 0.00 0.00 0.00 73 1002.0
20260509161747 20 173 1.6 3.2 0.00 0.00 0.00 74 1001.7
20260509161243 20 255 4.8 4.8 0.00 0.00 0.00 76 1002.0
20260509160739 20 163 3.2 3.2 0.00 0.00 0.00 73 1002.0
20260509160235 20 205 3.2 3.2 0.00 0.00 0.00 73 1002.0
20260509155731 21 229 3.2 4.8 0.00 0.00 0.00 73 1002.1
20260509155228 20 34 1.6 1.6 0.00 0.00 0.00 75 1002.0
20260509154723 20 144 4.8 4.8 0.00 0.00 0.00 72 1002.0
20260509154221 20 235 1.6 1.6 0.00 0.00 0.00 77 1002.0
20260509153718 20 264 4.8 4.8 0.00 0.00 0.00 77 1002.1
20260509153214 20 309 1.6 3.2 0.00 0.00 0.00 75 1001.9
20260509152710 20 297 4.8 4.8 0.00 0.00 0.00 74 1001.9
20260509152207 20 250 3.2 3.2 0.00 0.00 0.00 76 1001.7
20260509151704 19 195 3.2 3.2 0.00 0.00 0.00 76 1001.8
20260509151201 19 283 8.0 11.3 0.00 0.00 0.00 77 1001.7
20260509150659 20 313 4.8 8.0 0.00 0.00 0.00 76 1001.4
20260509150157 18 201 3.2 3.2 0.00 0.00 0.00 77 1001.5
20260509145653 18 221 3.2 3.2 0.00 0.00 0.00 77 1001.5
20260509145148 19 242 4.8 4.8 0.00 0.00 0.00 76 1001.4
20260509144645 19 241 3.2 3.2 0.00 0.00 0.00 77 1001.5
20260509144142 19 221 6.4 8.0 0.00 0.00 0.00 76 1001.4
20260509143639 19 235 8.0 12.9 0.00 0.00 0.00 75 1001.5
20260509143137 18 217 1.6 1.6 0.00 0.00 0.00 77 1001.2
20260509142632 18 303 1.6 1.6 0.00 0.00 0.00 78 1001.6
20260509142129 19 244 4.8 8.0 0.00 0.00 0.00 77 1001.4
20260509141624 18 298 0.0 1.6 0.00 0.00 0.00 79 1001.5
20260509141121 18 320 1.6 3.2 0.00 0.00 0.00 78 1001.2
20260509140618 19 306 3.2 4.8 0.00 0.00 0.00 77 1001.4
20260509140116 18 213 1.6 3.2 0.00 0.00 0.00 77 1001.1
20260509135613 19 176 1.6 1.6 0.00 0.00 0.00 77 1001.4
20260509135111 18 74 1.6 1.6 0.00 0.00 0.00 77 1001.3
20260509134607 18 214 3.2 3.2 0.00 0.00 0.00 78 1001.2
20260509134105 18 311 3.2 4.8 0.00 0.00 0.00 79 1001.2
20260509133602 17 191 4.8 8.0 0.00 0.00 0.00 79 1001.2
20260509133059 17 273 1.6 1.6 0.00 0.00 0.00 81 1001.2
20260509132557 17 186 4.8 8.0 0.00 0.00 0.00 81 1001.4
20260509132055 17 163 3.2 3.2 0.00 0.00 0.00 80 1001.4
20260509131551 17 327 4.8 4.8 0.00 0.00 0.00 82 1001.1
20260509131048 16 192 6.4 9.7 0.00 0.00 0.00 82 1001.0